Location: *
(42.0175°N, 9.4056°E)
Time: 22:04:48
(UTC+00:00)

GP-B - Pass Details

Date: 25 August 2019
Orbit: 631 x 636 km, 89.8° (Epoch: 14 September)

Event Time Altitude Azimuth Distance (km) Brightness Sun altitude
Rises 20:10:30 0° 359° (N) 2,936 7.1 -21.1°
Reaches altitude 10° 20:12:44 10° 358° (N) 2,023 6.2 -21.4°
Maximum altitude 20:17:09 72° 275° (W) 667 3.2 -22.1°
Enters shadow 20:18:49 38° 200° (SSW) 974 3.8 -22.3°
